Date,TemperatureHighF,TemperatureAvgF,TemperatureLowF,DewpointHighF,DewpointAvgF,DewpointLowF,HumidityHigh,HumidityAvg,HumidityLow,PressureMaxIn,PressureMinIn,WindSpeedMaxMPH,WindSpeedAvgMPH,GustSpeedMaxMPH,PrecipitationSumIn
2014-1-1,19,12,7,16,9,3,91,89,84,30.33,30.22,16,7,19,0.00
2014-1-2,13,7,-8,7,2,-11,89,80,71,30.46,30.19,13,4,20,0.00
2014-1-3,18,4,-15,14,0,-19,88,84,77,30.47,29.89,24,6,30,0.00
2014-1-4,31,27,18,27,23,14,97,89,79,30.03,29.80,22,6,30,0.00
2014-1-5,18,8,-7,15,2,-14,91,76,60,30.12,30.01,19,7,24,0.00
2014-1-6,-5,-14,-19,-14,-21,-25,78,73,70,30.32,30.13,25,11,30,0.00
2014-1-7,3,-8,-16,-5,-12,-21,87,79,70,30.36,30.28,11,3,13,0.00
2014-1-8,9,-4,-14,1,-8,-17,87,81,69,30.56,30.33,4,0,6,0.00
2014-1-9,24,11,-12,23,8,-16,96,89,81,30.57,30.15,14,3,18,0.00
2014-1-10,37,32,24,36,31,24,98,97,96,30.16,29.46,17,6,27,0.79
2014-1-11,36,33,29,36,30,26,98,92,84,29.77,29.41,16,7,22,0.00
2014-1-12,39,34,27,35,31,25,95,87,79,29.82,29.55,21,9,27,0.00
2014-1-13,39,33,23,35,30,22,95,90,83,29.75,29.51,13,3,18,0.00
2014-1-14,34,26,18,33,23,15,97,89,80,29.91,29.57,27,10,33,0.01
2014-1-15,19,13,8,15,9,5,88,83,75,30.10,29.81,16,4,20,0.00
2014-1-16,33,25,14,32,21,9,96,84,67,29.80,29.45,23,9,28,0.01
2014-1-17,17,12,6,12,7,1,88,82,77,30.00,29.71,13,6,18,0.00
2014-1-18,21,13,3,17,10,0,91,88,83,29.96,29.71,19,3,19,0.00
2014-1-19,36,20,2,31,16,1,91,87,80,29.89,29.53,19,6,20,0.00
2014-1-20,35,26,9,30,22,6,90,84,76,30.12,29.61,19,6,20,0.00
2014-1-21,8,1,-5,5,-5,-9,86,76,64,30.35,30.12,14,3,23,0.00
2014-1-22,13,8,-2,10,3,-10,88,81,67,30.24,29.92,13,6,26,0.00
2014-1-23,4,-3,-10,-5,-10,-15,80,72,66,30.64,30.25,15,5,20,0.00
2014-1-24,28,12,-10,26,7,-14,95,80,72,30.57,29.47,29,11,31,0.00
2014-1-25,32,16,3,31,6,-4,96,67,43,29.88,29.42,21,8,30,0.00
2014-1-26,29,15,2,24,11,-4,91,82,68,29.88,29.40,26,8,38,0.00
2014-1-27,2,-6,-13,-4,-13,-18,78,72,63,30.48,29.89,19,8,27,0.00
2014-1-28,2,-7,-17,-7,-13,-21,83,76,64,30.48,30.28,13,4,17,0.00
2014-1-29,21,8,-6,11,1,-10,84,74,60,30.28,29.96,21,5,24,0.00
2014-1-30,30,23,17,27,18,9,94,81,69,29.96,29.64,22,10,30,0.00
2014-1-31,17,14,11,14,9,7,87,81,74,30.18,29.94,6,1,8,0.00
2014-2-1,26,19,14,23,17,11,93,90,87,30.11,29.89,9,3,12,0.00
2014-2-2,17,8,-8,15,4,-11,91,83,72,30.34,30.11,6,1,10,0.00
2014-2-3,15,0,-16,5,-6,-19,89,79,61,30.43,30.33,3,0,4,0.00
2014-2-4,20,13,1,18,8,-3,93,81,71,30.45,30.13,11,3,15,0.00
2014-2-5,21,15,-2,17,11,-5,94,86,69,30.46,30.08,12,4,20,0.00
2014-2-6,4,-3,-10,-4,-8,-13,88,80,67,30.49,30.40,12,3,18,0.00
2014-2-7,8,-1,-12,2,-5,-15,86,80,73,30.43,30.36,11,4,15,0.00
2014-2-8,15,10,4,11,6,-1,92,85,79,30.36,30.15,7,2,11,0.00
2014-2-9,14,5,-4,9,1,-9,92,84,70,30.34,30.14,8,2,16,0.00
2014-2-10,7,-6,-19,-2,-12,-23,87,79,62,30.54,30.34,9,2,12,0.00
2014-2-11,9,-4,-21,-1,-10,-23,85,77,67,30.58,30.41,5,1,8,0.00
2014-2-12,18,10,-5,14,5,-8,89,81,71,30.41,30.03,10,3,12,0.00
2014-2-13,32,21,10,28,16,6,87,80,69,30.03,29.52,16,6,27,0.00
2014-2-14,20,12,4,12,6,1,87,80,69,29.99,29.63,11,3,18,0.00
2014-2-15,17,8,-5,13,4,-9,91,83,68,30.12,29.97,7,2,12,0.00
2014-2-16,25,18,11,17,13,8,91,83,67,30.27,29.97,11,3,13,0.00
2014-2-17,30,23,20,27,20,17,94,89,84,30.23,29.69,20,7,27,0.00
2014-2-18,41,32,16,33,27,14,95,83,70,29.92,29.62,15,5,23,0.09
2014-2-19,39,32,24,32,28,23,93,85,70,29.95,29.64,8,3,13,0.00
2014-2-20,42,35,32,42,34,30,98,94,87,29.89,29.14,25,10,41,0.86
2014-2-21,34,26,20,31,20,13,90,77,58,29.82,29.29,29,12,38,0.00
2014-2-22,30,22,16,20,15,9,84,74,59,30.09,29.83,9,4,15,0.00
2014-2-23,26,17,11,18,9,4,80,71,59,30.25,30.02,16,6,18,0.00
2014-2-24,21,14,8,12,8,3,83,76,62,30.31,30.24,13,5,19,0.00
2014-2-25,15,10,2,10,3,-5,87,73,56,30.27,30.17,15,6,22,0.00
2014-2-26,16,5,-5,9,-2,-10,81,73,62,30.29,29.68,18,7,26,0.00
2014-2-27,16,4,-4,4,-7,-12,84,59,42,30.22,29.70,15,4,34,0.00
2014-2-28,27,14,-5,22,7,-9,85,74,63,30.22,29.98,15,4,19,0.00
2014-3-1,26,15,8,23,10,5,94,82,63,30.37,30.02,13,4,15,0.00
2014-3-2,10,5,-2,5,-6,-14,87,65,54,30.49,30.36,10,3,16,0.00
2014-3-3,17,4,-8,7,-5,-15,85,67,55,30.56,30.39,7,1,10,0.00
2014-3-4,26,17,9,14,10,4,86,74,59,30.40,30.19,8,2,11,0.00
2014-3-5,22,18,12,16,13,8,91,79,69,30.46,30.25,13,7,18,0.00
2014-3-6,30,20,8,18,13,5,91,77,64,30.43,30.07,12,2,14,0.00
2014-3-7,40,30,16,33,25,13,91,83,72,30.07,29.86,10,3,14,0.02
2014-3-8,35,29,18,32,24,16,92,82,65,30.24,29.98,12,4,16,0.00
2014-3-9,38,31,13,33,26,11,93,83,76,30.24,29.77,17,7,21,0.00
2014-3-10,46,39,35,39,35,32,95,85,76,29.77,29.63,10,3,18,0.00
2014-3-11,46,39,32,37,35,32,96,85,66,29.76,29.63,17,4,17,0.03
2014-3-12,35,28,19,32,20,9,95,74,59,30.11,29.70,13,5,25,0.00
2014-3-13,38,26,15,34,21,11,93,82,71,30.11,29.80,22,6,22,0.00
2014-3-14,47,40,35,38,34,32,88,78,70,29.83,29.55,17,7,22,0.00
2014-3-15,38,33,27,32,27,23,91,77,62,30.24,29.83,19,5,19,0.00
2014-3-16,28,22,16,23,13,10,86,72,58,30.38,30.19,23,11,32,0.00
2014-3-17,37,26,14,28,18,11,89,71,47,30.17,29.76,13,4,16,0.00
2014-3-18,48,38,29,39,33,27,91,83,70,29.83,29.63,19,5,24,0.00
2014-3-19,41,38,33,39,34,26,98,89,73,29.97,29.53,22,6,26,0.12
2014-3-20,46,36,29,32,28,25,95,75,47,30.04,29.97,10,2,22,0.00
2014-3-21,53,43,29,46,37,26,92,79,67,29.98,29.64,17,6,25,0.00
2014-3-22,38,34,25,32,24,14,85,67,45,30.33,29.86,13,4,18,0.00
2014-3-23,34,26,16,14,11,8,73,57,45,30.45,30.31,15,3,15,0.00
2014-3-24,34,28,18,26,16,10,87,61,43,30.38,30.05,11,3,13,0.00
2014-3-25,37,26,16,26,11,5,92,60,44,30.25,30.02,20,6,30,0.00
2014-3-26,37,30,13,25,18,9,86,63,50,30.31,29.93,18,6,29,0.00
2014-3-27,50,42,33,48,38,25,95,88,64,29.93,29.37,32,10,33,0.31
2014-3-28,50,38,34,48,34,31,97,84,77,30.16,29.37,16,3,26,0.06
2014-3-29,45,35,28,32,28,22,90,77,53,30.24,30.15,11,4,18,0.00
2014-3-30,55,40,25,42,31,21,89,72,55,30.25,29.98,15,4,18,0.00
2014-3-31,63,54,39,47,41,35,83,63,47,29.99,29.62,25,9,31,0.00
2014-4-1,54,38,28,44,28,20,83,71,54,30.06,29.62,28,10,31,0.06
2014-4-2,52,42,29,34,30,26,90,65,46,30.15,30.01,17,7,21,0.00
2014-4-3,41,37,34,37,34,29,97,87,74,30.00,29.61,25,11,31,0.28
2014-4-4,43,38,36,43,34,28,98,85,71,29.99,29.44,25,10,35,0.00
2014-4-5,55,43,26,33,29,24,92,63,46,30.19,30.00,13,3,14,0.00
2014-4-6,55,47,33,38,34,28,83,62,42,30.12,29.91,12,4,16,0.00
2014-4-7,58,48,36,45,34,29,91,62,34,29.91,29.58,13,3,15,0.04
2014-4-8,60,50,41,45,38,32,93,69,38,29.89,29.62,11,3,20,0.00
2014-4-9,62,48,30,36,33,28,93,62,31,29.99,29.78,14,4,22,0.00
2014-4-10,65,54,42,42,34,20,76,51,19,29.91,29.62,13,5,21,0.00
2014-4-11,69,53,31,36,31,25,85,48,22,30.01,29.89,12,3,21,0.00
2014-4-12,78,66,47,58,50,34,76,57,45,29.96,29.59,22,9,32,0.00
2014-4-13,64,57,50,60,54,49,99,91,76,29.70,29.32,19,6,27,0.66
2014-4-14,62,37,28,60,35,25,96,91,84,29.99,29.28,17,6,24,0.14
2014-4-15,37,30,22,25,21,16,92,70,48,30.19,29.99,11,2,16,0.01
2014-4-16,52,40,28,34,29,23,83,67,45,30.25,30.04,22,8,29,0.00
2014-4-17,58,47,39,41,37,29,86,67,53,30.22,30.03,19,6,22,0.00
2014-4-18,60,45,33,40,35,29,93,71,38,30.32,30.22,20,4,21,0.00
2014-4-19,68,51,33,40,34,27,83,57,31,30.33,30.15,11,6,21,0.00
2014-4-20,79,62,45,46,42,37,73,50,28,30.18,29.94,16,7,20,0.00
2014-4-21,69,62,54,60,52,45,98,73,51,29.94,29.76,13,3,18,0.03
2014-4-22,60,50,37,53,34,28,90,57,30,30.05,29.78,16,5,18,0.00
2014-4-23,55,42,27,33,29,25,91,63,37,30.15,29.98,14,4,17,0.04
2014-4-24,64,51,38,45,39,31,84,64,42,30.05,29.60,31,9,32,0.08
2014-4-25,69,56,45,47,43,36,94,65,32,29.80,29.55,18,5,27,0.14
2014-4-26,60,50,40,44,36,31,81,62,40,29.96,29.79,19,7,25,0.00
2014-4-27,58,49,40,46,40,34,88,71,48,29.98,29.75,23,13,38,0.44
2014-4-28,54,49,44,50,45,39,94,87,70,29.76,29.46,30,14,31,0.26
2014-4-29,55,50,46,53,48,45,98,91,75,29.60,29.42,18,6,21,0.15
2014-4-30,48,44,40,46,41,37,97,88,79,29.75,29.61,15,5,17,0.00
2014-5-1,47,43,39,44,41,37,95,92,86,29.79,29.63,14,6,22,0.11
2014-5-2,53,48,44,46,44,42,94,86,69,29.79,29.61,13,5,19,0.01
2014-5-3,66,55,43,45,41,35,92,62,35,29.85,29.60,20,7,28,0.00
2014-5-4,58,51,44,40,33,28,65,51,32,30.04,29.86,13,4,16,0.00
2014-5-5,57,49,41,38,35,31,78,60,43,30.00,29.89,20,9,25,0.00
2014-5-6,64,52,39,42,38,34,84,61,38,29.97,29.80,24,10,26,0.00
2014-5-7,81,60,50,62,48,39,86,64,46,29.80,29.65,21,8,23,0.00
2014-5-8,89,52,0,64,60,49,91,50,36,29.78,29.66,24,8,28,0.03
2014-5-9,68,61,48,64,52,44,95,73,56,29.82,29.59,23,8,36,0.29
2014-5-10,77,56,44,50,44,41,92,70,31,29.91,29.81,8,1,17,0.00
2014-5-11,82,67,57,63,56,44,93,69,51,29.88,29.75,12,5,17,0.00
2014-5-12,84,73,63,71,66,61,97,82,58,29.86,29.69,20,7,27,0.47
2014-5-13,65,56,51,63,51,42,96,87,73,30.11,29.71,19,6,20,0.12
2014-5-14,56,51,44,44,42,40,94,72,57,30.16,29.98,10,3,15,0.04
2014-5-15,55,45,41,43,40,36,93,83,51,30.01,29.90,12,4,18,0.18
2014-5-16,50,42,32,41,36,31,96,82,60,30.06,29.98,11,3,14,0.43
2014-5-17,62,50,36,40,37,31,95,66,41,30.13,30.05,11,3,18,0.00
2014-5-18,74,59,44,45,40,35,79,57,31,30.19,30.10,17,5,17,0.00
2014-5-19,68,58,46,49,45,41,84,63,43,30.16,29.86,27,7,32,0.04
2014-5-20,86,71,59,67,61,49,93,72,49,29.86,29.71,16,5,21,0.24
2014-5-21,85,74,64,68,59,47,97,64,33,29.91,29.73,13,3,22,0.00
2014-5-22,72,64,53,52,49,44,82,61,37,30.07,29.92,11,3,15,0.00
2014-5-23,74,61,46,53,48,44,96,67,39,30.16,30.07,11,2,18,0.00
2014-5-24,75,62,43,50,46,40,92,59,35,30.19,30.06,7,2,11,0.00
2014-5-25,84,70,49,57,50,45,86,53,29,30.09,29.92,13,3,18,0.00
2014-5-26,87,72,63,70,63,57,97,76,45,29.97,29.83,22,3,27,0.73
2014-5-27,83,74,64,70,67,62,97,79,59,29.89,29.79,14,4,29,0.35
2014-5-28,77,68,57,65,60,49,98,78,57,30.00,29.84,18,5,18,0.01
2014-5-29,79,66,54,66,56,49,90,72,47,30.07,29.98,13,4,14,0.00
2014-5-30,83,70,54,61,54,49,87,62,33,30.12,30.05,11,4,14,0.00
2014-5-31,89,75,57,57,53,50,83,51,27,30.12,29.95,18,5,18,0.00
2014-6-1,90,79,67,70,63,55,89,60,39,29.99,29.77,20,8,31,0.00
2014-6-2,81,74,67,69,67,63,93,78,56,29.80,29.68,17,8,26,0.13
2014-6-3,80,71,62,64,55,51,86,60,37,29.91,29.76,11,3,18,0.00
2014-6-4,68,63,54,59,57,53,94,83,65,29.87,29.70,13,4,18,0.22
2014-6-5,78,64,49,55,48,43,98,62,31,29.94,29.86,9,3,16,0.00
2014-6-6,85,71,54,52,48,40,72,45,29,29.95,29.87,8,2,12,0.00
2014-6-7,82,70,55,61,52,40,94,57,38,29.93,29.76,14,3,17,0.43
2014-6-8,69,63,54,60,54,42,93,73,46,30.01,29.79,10,3,18,0.01
2014-6-9,82,70,51,62,54,43,78,57,38,29.99,29.83,13,3,14,0.00
2014-6-10,59,59,59,58,57,57,95,94,93,29.76,29.72,11,6,14,0.17
2014-6-11,65,61,57,61,59,56,98,93,86,29.71,29.64,13,4,16,1.36
2014-6-12,75,65,54,66,58,48,98,79,52,29.84,29.70,11,3,18,0.00
2014-6-13,75,63,51,48,43,36,82,52,26,29.97,29.84,12,4,21,0.00
2014-6-14,79,67,52,52,47,44,85,54,30,30.04,29.87,16,4,22,0.00
2014-6-15,86,74,61,68,59,49,84,60,49,29.92,29.69,26,8,34,0.00
2014-6-16,88,76,62,71,64,60,93,69,44,29.98,29.76,11,4,17,0.00
2014-6-17,89,79,70,73,69,64,90,71,51,29.83,29.70,15,6,25,0.04
2014-6-18,80,74,64,72,68,63,95,84,72,29.97,29.77,18,6,23,1.04
2014-6-19,83,70,63,72,66,62,97,89,70,30.03,29.92,13,5,23,1.55
2014-6-20,83,74,65,71,68,63,98,85,58,29.96,29.85,9,3,15,0.37
2014-6-21,84,69,62,74,66,61,98,91,70,29.91,29.73,9,3,26,0.67
2014-6-22,84,74,60,70,66,59,99,80,55,29.87,29.75,8,2,13,0.01
2014-6-23,80,72,66,71,68,65,95,85,72,29.80,29.73,7,2,10,0.00
2014-6-24,88,78,66,71,67,63,97,72,52,29.84,29.77,11,2,11,0.00
2014-6-25,81,70,63,71,65,60,94,86,68,29.98,29.83,12,2,25,1.01
2014-6-26,78,67,59,69,63,58,98,88,69,30.03,29.91,8,3,12,0.00
2014-6-27,86,74,62,71,67,60,94,80,58,29.96,29.86,15,5,17,0.07
2014-6-28,84,76,69,74,71,66,93,83,68,29.94,29.79,15,6,24,0.09
2014-6-29,83,75,66,73,70,65,98,85,69,29.92,29.76,15,5,23,0.22
2014-6-30,84,72,63,77,70,62,99,91,78,29.82,29.52,16,6,34,2.36
2014-7-1,79,71,64,66,64,60,99,82,63,29.73,29.59,15,5,19,0.00
2014-7-2,65,61,58,60,58,55,97,88,74,29.98,29.73,12,3,17,0.16
2014-7-3,75,65,57,60,54,46,97,72,41,30.15,29.98,12,2,13,0.04
2014-7-4,80,68,54,62,55,51,92,67,39,30.25,30.15,6,1,8,0.00
2014-7-5,75,68,60,61,58,53,86,72,54,30.20,29.99,12,5,17,0.00
2014-7-6,84,74,62,75,68,59,93,83,71,29.98,29.64,13,6,23,0.00
2014-7-7,84,77,69,71,68,64,98,76,51,29.69,29.57,11,3,15,0.21
2014-7-8,78,72,61,67,63,58,97,75,54,29.77,29.53,19,5,23,0.60
2014-7-9,77,67,57,61,57,53,96,73,46,30.01,29.77,9,2,15,0.00
2014-7-10,81,68,53,61,57,52,95,70,45,30.12,30.01,5,1,8,0.00
2014-7-11,79,71,57,64,60,53,87,70,48,30.14,30.02,12,3,14,0.00
2014-7-12,83,75,69,74,69,62,97,84,74,30.03,29.76,16,3,25,1.01
2014-7-13,82,72,65,70,67,59,98,84,61,29.89,29.78,12,3,16,0.00
2014-7-14,77,67,57,64,56,50,93,72,43,29.84,29.75,10,3,19,0.31
2014-7-15,67,58,51,58,53,49,96,83,64,29.94,29.82,12,4,19,0.05
2014-7-16,74,62,48,57,53,48,98,76,47,29.99,29.93,10,2,12,0.01
2014-7-17,77,66,54,60,55,51,91,70,47,30.06,29.98,4,1,10,0.00
2014-7-18,80,68,54,63,59,53,95,74,47,30.11,30.01,5,2,9,0.00
2014-7-19,79,68,55,62,58,53,95,73,48,30.04,29.95,5,1,8,0.00
2014-7-20,79,70,56,65,61,55,95,76,58,30.01,29.94,7,2,11,0.00
2014-7-21,84,73,61,71,66,59,93,78,62,30.04,29.95,11,3,14,0.00
2014-7-22,82,72,68,72,68,65,92,86,73,29.98,29.90,14,4,16,0.00
2014-7-23,79,70,56,69,58,51,88,70,48,30.10,29.92,7,5,21,0.00
2014-7-24,78,73,69,60,57,54,72,58,47,30.02,29.99,2,0,16,0.00
2014-7-25,70,68,65,62,61,58,82,77,72,29.96,29.72,32,6,32,0.01
2014-7-26,86,78,66,73,70,61,93,78,68,29.85,29.71,7,2,11,0.00
2014-7-27,80,79,79,68,64,60,69,59,53,29.69,29.67,12,9,20,0.00
2014-7-28,72,67,59,56,53,49,84,63,51,30.05,30.01,12,2,13,0.00
2014-7-29,68,66,64,63,62,60,91,86,82,29.96,29.94,3,1,8,0.15
2014-7-30,81,65,55,62,58,54,96,79,54,30.00,29.94,10,2,15,0.00
2014-7-31,84,70,54,65,61,53,94,76,51,29.99,29.95,11,2,15,0.00
2014-8-1,84,70,58,67,61,56,95,76,46,30.10,29.97,11,2,29,0.19
2014-8-2,83,69,54,68,61,53,97,79,51,30.11,30.00,5,1,8,0.00
2014-8-3,83,73,61,69,64,59,95,77,55,30.09,30.00,9,2,12,0.00
2014-8-4,85,72,62,70,65,60,96,80,55,30.05,29.94,9,2,17,0.36
2014-8-5,80,70,63,69,66,62,98,86,66,30.00,29.94,11,1,13,0.00
2014-8-6,107,71,58,81,58,54,98,70,26,30.03,29.97,3,0,5,0.05
2014-8-7,82,69,56,61,56,50,91,66,44,30.04,29.96,13,4,21,0.00
2014-8-8,81,70,59,63,58,56,93,68,43,30.02,29.97,14,5,22,0.00
2014-8-9,82,73,61,62,59,55,94,67,51,30.05,29.98,16,4,16,0.00
2014-8-10,82,72,63,65,61,57,92,71,44,30.00,29.89,9,2,12,0.19
2014-8-11,83,71,64,69,64,61,96,81,50,29.91,29.72,10,3,17,0.20
2014-8-12,74,64,56,62,56,53,92,76,53,29.93,29.73,13,4,19,0.08
2014-8-13,81,68,50,64,58,48,93,72,52,30.00,29.92,13,3,18,0.00
2014-8-14,75,65,54,58,54,50,94,72,47,30.06,29.98,9,2,13,0.00
2014-8-15,78,65,48,61,54,45,90,70,48,30.04,29.90,6,2,15,0.00
2014-8-16,83,72,58,69,64,56,96,81,65,29.90,29.82,11,2,11,0.00
2014-8-17,76,68,61,67,63,59,96,86,71,29.93,29.85,9,3,12,0.00
2014-8-18,82,71,61,69,65,59,96,84,64,29.88,29.70,7,2,12,0.00
2014-8-19,84,75,65,72,68,62,93,80,53,29.72,29.62,14,5,19,0.02
2014-8-20,84,73,61,70,65,59,94,79,56,29.88,29.72,10,2,16,0.00